{"data":{"norad_id":62242,"epoch":"2026-09-22T20:49:08.664096Z","epoch_age_seconds":105988,"freshness":"FRESH","line1":"1 62242U 24232F   26265.86746139  .00000097  00000+0  13137-3 0  9997","line2":"2 62242  89.0165  12.6852 0015842  92.4455 267.8510 13.51030766137619","mean_motion":13.51030766,"eccentricity":0.0015842,"inclination_deg":89.0165,"raan_deg":12.6852,"arg_perigee_deg":92.4455,"mean_anomaly_deg":267.851,"bstar":0.00013137,"rev_number":13761,"period_min":106.5852855641,"perigee_km":1056.6716200114,"apogee_km":1080.2654449805,"semimajor_km":7446.605532496,"source":"CELESTRAK","updated_at":"2026-09-23T09:00:21.308014Z"}}